When you browse on this site, cookies collect data to enhance your experience and personalize the content and advertising you see.
Visit our Privacy Policy to learn more. By continuing to use the site, you agree to this use of cookies and data.
  • In Austria
  • List of Countries
  • For 7 days
  • Water Temperature
  • Satellite Maps
  • Weather Map
  • News
  • Weather Widgets
  • user-avatar
    Login

    Hourly Weather Matlock

    Today, 14 December, Friday

    Time Temperature Precipitation Wind Pressure Humidity
    00:00 -1°C° 0 mm 3 mps 749 mmHg 84%
    01:00 -1°C° 0 mm 3 mps 749 mmHg 85%
    02:00 -1°C° 0 mm 3 mps 749 mmHg 86%
    03:00 -1°C° 0 mm 2 mps 749 mmHg 87%
    04:00 -1°C° 0 mm 2 mps 749 mmHg 87%
    05:00 -1°C° 0 mm 2 mps 749 mmHg 88%
    06:00 -2°C° 0 mm 2 mps 750 mmHg 88%
    07:00 -1°C° 0 mm 2 mps 750 mmHg 86%
    08:00 -1°C° 0 mm 2 mps 750 mmHg 85%
    09:00 -1°C° 0 mm 2 mps 750 mmHg 83%
    10:00 0°C° 0 mm 3 mps 750 mmHg 78%
    11:00 +1°C° 0 mm 3 mps 750 mmHg 73%
    12:00 +2°C° 0 mm 3 mps 750 mmHg 67%
    13:00 +1°C° 0 mm 3 mps 750 mmHg 70%
    14:00 +1°C° 0 mm 3 mps 750 mmHg 72%
    15:00 +1°C° 0 mm 3 mps 749 mmHg 75%
    16:00 0°C° 0 mm 3 mps 749 mmHg 78%
    17:00 0°C° 0 mm 3 mps 749 mmHg 81%
    18:00 -1°C° 0 mm 3 mps 749 mmHg 84%
    19:00 -1°C° 0 mm 3 mps 749 mmHg 84%
    20:00 -1°C° 0 mm 3 mps 749 mmHg 85%
    21:00 -2°C° 0 mm 4 mps 749 mmHg 85%
    22:00 -2°C° 0 mm 4 mps 749 mmHg 84%
    23:00 -2°C° 0 mm 4 mps 749 mmHg 84%

    Tomorrow, 15 December, Saturday

    Time Temperature Precipitation Wind Pressure Humidity
    00:00 -2°C° 0 mm 4 mps 748 mmHg 83%
    01:00 -2°C° 0 mm 5 mps 748 mmHg 81%
    02:00 -2°C° 0 mm 5 mps 747 mmHg 80%
    03:00 -3°C° 0 mm 6 mps 746 mmHg 78%
    04:00 -3°C° 0 mm 6 mps 746 mmHg 77%
    05:00 -3°C° 0 mm 6 mps 745 mmHg 76%
    06:00 -3°C° 0 mm 7 mps 744 mmHg 75%
    07:00 -3°C° 0.1 mm 7 mps 744 mmHg 76%
    08:00 -4°C° 0.1 mm 8 mps 743 mmHg 76%
    09:00 -2°C° 0.1 mm 8 mps 743 mmHg 77%
    10:00 -2°C° 0.3 mm 8 mps 742 mmHg 77%
    11:00 -3°C° 0.3 mm 9 mps 741 mmHg 77%
    12:00 -3°C° 0.3 mm 9 mps 740 mmHg 77%
    13:00 -3°C° 0.2 mm 9 mps 738 mmHg 78%
    14:00 -3°C° 0.2 mm 9 mps 737 mmHg 78%
    15:00 -3°C° 0.2 mm 9 mps 735 mmHg 79%
    16:00 -1°C° 1.1 mm 9 mps 734 mmHg 82%
    17:00 -2°C° 1.1 mm 10 mps 732 mmHg 84%
    18:00 -2°C° 1.1 mm 10 mps 730 mmHg 87%
    19:00 0°C° 1.5 mm 10 mps 729 mmHg 88%
    20:00 +1°C° 1.5 mm 9 mps 727 mmHg 89%
    21:00 +2°C° 1.5 mm 9 mps 726 mmHg 91%
    22:00 +2°C° 0.4 mm 9 mps 725 mmHg 90%
    23:00 +4°C° 0.4 mm 8 mps 725 mmHg 90%

    Day after tomorrow, 16 December, Sunday

    Time Temperature Precipitation Wind Pressure Humidity
    00:00 +5°C° 0.4 mm 8 mps 725 mmHg 90%
    01:00 +3°C° 0.3 mm 9 mps 726 mmHg 85%
    02:00 +3°C° 0.3 mm 9 mps 728 mmHg 81%
    03:00 +2°C° 0.3 mm 9 mps 729 mmHg 76%
    04:00 +2°C° 0 mm 8 mps 730 mmHg 77%
    05:00 +3°C° 0 mm 7 mps 731 mmHg 77%
    06:00 +3°C° 0 mm 7 mps 732 mmHg 78%
    07:00 +2°C° 0 mm 6 mps 733 mmHg 80%
    08:00 +2°C° 0 mm 5 mps 734 mmHg 81%
    09:00 +1°C° 0 mm 5 mps 735 mmHg 83%
    10:00 +2°C° 0 mm 5 mps 735 mmHg 81%
    11:00 +3°C° 0 mm 5 mps 735 mmHg 79%
    12:00 +5°C° 0 mm 5 mps 736 mmHg 77%
    13:00 +4°C° 0 mm 4 mps 736 mmHg 80%
    14:00 +4°C° 0 mm 4 mps 736 mmHg 82%
    15:00 +4°C° 0 mm 4 mps 736 mmHg 84%
    16:00 +4°C° 0.2 mm 4 mps 736 mmHg 86%
    17:00 +4°C° 0.2 mm 3 mps 737 mmHg 88%
    18:00 +3°C° 0.2 mm 3 mps 737 mmHg 90%
    19:00 +3°C° 0 mm 3 mps 737 mmHg 90%
    20:00 +2°C° 0 mm 3 mps 738 mmHg 91%
    21:00 +2°C° 0 mm 3 mps 738 mmHg 92%
    22:00 +2°C° 0 mm 3 mps 739 mmHg 92%
    23:00 +2°C° 0 mm 3 mps 739 mmHg 91%

    17 December, Monday

    Time Temperature Precipitation Wind Pressure Humidity
    00:00 +1°C° 0 mm 3 mps 739 mmHg 91%
    01:00 +1°C° 0 mm 3 mps 740 mmHg 91%
    02:00 +1°C° 0 mm 3 mps 740 mmHg 91%
    03:00 +1°C° 0 mm 3 mps 740 mmHg 91%
    04:00 +1°C° 0 mm 3 mps 741 mmHg 91%
    05:00 +1°C° 0 mm 3 mps 741 mmHg 91%
    06:00 +1°C° 0 mm 3 mps 741 mmHg 91%
    07:00 +1°C° 0 mm 3 mps 742 mmHg 91%
    08:00 +1°C° 0 mm 3 mps 742 mmHg 91%
    09:00 +1°C° 0 mm 3 mps 743 mmHg 90%
    10:00 +2°C° 0 mm 3 mps 743 mmHg 88%
    11:00 +3°C° 0 mm 3 mps 743 mmHg 85%
    12:00 +4°C° 0 mm 4 mps 744 mmHg 82%
    13:00 +4°C° 0 mm 4 mps 743 mmHg 84%
    14:00 +4°C° 0 mm 4 mps 743 mmHg 86%
    15:00 +4°C° 0 mm 4 mps 743 mmHg 87%
    16:00 +3°C° 0 mm 5 mps 743 mmHg 88%
    17:00 +3°C° 0 mm 5 mps 742 mmHg 89%
    18:00 +3°C° 0 mm 6 mps 742 mmHg 90%
    19:00 +4°C° 0.1 mm 6 mps 742 mmHg 89%
    20:00 +5°C° 0.1 mm 7 mps 741 mmHg 89%
    21:00 +5°C° 0.1 mm 7 mps 741 mmHg 89%
    22:00 +6°C° 0 mm 8 mps 741 mmHg 88%
    23:00 +6°C° 0 mm 8 mps 740 mmHg 87%

    18 December, Tuesday

    Time Temperature Precipitation Wind Pressure Humidity
    00:00 +6°C° 0 mm 8 mps 740 mmHg 86%
    01:00 +7°C° 0.1 mm 8 mps 739 mmHg 86%
    02:00 +7°C° 0.1 mm 8 mps 738 mmHg 86%
    03:00 +7°C° 0.1 mm 9 mps 738 mmHg 86%
    04:00 +7°C° 0.1 mm 9 mps 737 mmHg 84%
    05:00 +7°C° 0.1 mm 9 mps 736 mmHg 83%
    06:00 +7°C° 0.1 mm 10 mps 736 mmHg 81%
    07:00 +7°C° 0.1 mm 10 mps 735 mmHg 80%
    08:00 +7°C° 0.1 mm 11 mps 734 mmHg 79%
    09:00 +7°C° 0.1 mm 12 mps 733 mmHg 77%
    10:00 +5°C° 1 mm 12 mps 732 mmHg 78%
    11:00 +5°C° 1 mm 12 mps 731 mmHg 78%
    12:00 +4°C° 1 mm 12 mps 730 mmHg 78%
    13:00 +5°C° 1.4 mm 10 mps 730 mmHg 80%
    14:00 +5°C° 1.4 mm 9 mps 729 mmHg 83%
    15:00 +5°C° 1.4 mm 8 mps 729 mmHg 85%
    16:00 +5°C° 0.3 mm 7 mps 729 mmHg 86%
    17:00 +5°C° 0.3 mm 6 mps 729 mmHg 86%
    18:00 +5°C° 0.3 mm 5 mps 730 mmHg 86%
    19:00 +5°C° 0 mm 5 mps 730 mmHg 86%
    20:00 +5°C° 0 mm 5 mps 731 mmHg 85%
    21:00 +5°C° 0 mm 5 mps 732 mmHg 85%
    22:00 +5°C° 0 mm 5 mps 732 mmHg 85%
    23:00 +3°C° 0 mm 5 mps 732 mmHg 85%

    19 December, Wednesday

    Time Temperature Precipitation Wind Pressure Humidity
    00:00 +3°C° 0 mm 5 mps 733 mmHg 85%
    01:00 +3°C° 0 mm 5 mps 733 mmHg 84%
    02:00 +3°C° 0 mm 5 mps 733 mmHg 83%
    03:00 +3°C° 0 mm 5 mps 733 mmHg 82%
    04:00 +2°C° 0 mm 5 mps 733 mmHg 82%
    05:00 +2°C° 0 mm 5 mps 733 mmHg 82%
    06:00 +2°C° 0 mm 5 mps 733 mmHg 83%
    07:00 +2°C° 0 mm 5 mps 733 mmHg 82%
    08:00 +2°C° 0 mm 6 mps 733 mmHg 82%
    09:00 +2°C° 0 mm 6 mps 733 mmHg 82%
    10:00 +3°C° 0 mm 6 mps 733 mmHg 79%
    11:00 +4°C° 0 mm 6 mps 733 mmHg 76%
    12:00 +4°C° 0 mm 7 mps 733 mmHg 73%
    13:00 +4°C° 0 mm 6 mps 732 mmHg 74%
    14:00 +4°C° 0 mm 6 mps 732 mmHg 74%
    15:00 +4°C° 0 mm 6 mps 732 mmHg 75%
    16:00 +4°C° 0.1 mm 7 mps 731 mmHg 77%
    17:00 +4°C° 0.1 mm 7 mps 731 mmHg 79%
    18:00 +4°C° 0.1 mm 7 mps 731 mmHg 81%
    19:00 +4°C° 0.2 mm 7 mps 730 mmHg 81%
    20:00 +4°C° 0.2 mm 7 mps 730 mmHg 82%
    21:00 +4°C° 0.2 mm 7 mps 730 mmHg 83%
    22:00 +4°C° 0.1 mm 7 mps 730 mmHg 83%
    23:00 +4°C° 0.1 mm 7 mps 729 mmHg 83%
    Show more